AMX27LB MMMY-MMMZ

Flight info

Callsign AMX27LB
Flight time 1h 1m
Altitude 32000
Route OVEM1A/12 MTY J29 LESIT
Aircraft B38M/M-SDE1FGHILORVWXY/HB1

Departure

Time 2026-04-22 03:23
Airport Monterrey International Airport (MMMY)

Arrival

Time 2026-04-22 04:25
Airport General Rafael Buelna International Airport (MMMZ)
Time Latitude Longitude Altitude Speed Heading
2026-04-22 02:57 25.77588 -100.11076 1333 ft 0 kts 246°
2026-04-22 03:13 25.77594 -100.11060 1333 ft 4 kts 252°
2026-04-22 03:13 25.77599 -100.11031 1333 ft 4 kts 271°
2026-04-22 03:14 25.77593 -100.11005 1335 ft 4 kts 315°
2026-04-22 03:14 25.77584 -100.10998 1339 ft 1 kts 338°
2026-04-22 03:18 25.77590 -100.11001 1336 ft 2 kts 338°
2026-04-22 03:18 25.77612 -100.11015 1338 ft 5 kts 321°
2026-04-22 03:18 25.77637 -100.11050 1336 ft 7 kts 303°
2026-04-22 03:19 25.77668 -100.11105 1333 ft 10 kts 302°
2026-04-22 03:19 25.77709 -100.11175 1333 ft 12 kts 313°
2026-04-22 03:19 25.77754 -100.11186 1333 ft 6 kts 15°
2026-04-22 03:19 25.77795 -100.11163 1333 ft 8 kts 31°
2026-04-22 03:20 25.77850 -100.11135 1333 ft 8 kts
2026-04-22 03:20 25.77881 -100.11152 1333 ft 5 kts 311°
2026-04-22 03:20 25.77906 -100.11194 1333 ft 8 kts 301°
2026-04-22 03:20 25.77938 -100.11254 1333 ft 10 kts 301°
2026-04-22 03:21 25.77970 -100.11283 1333 ft 4 kts 353°
2026-04-22 03:21 25.78000 -100.11272 1333 ft 6 kts 29°
2026-04-22 03:21 25.78043 -100.11244 1337 ft 8 kts 31°
2026-04-22 03:21 25.78099 -100.11208 1333 ft 9 kts 22°
2026-04-22 03:22 25.78119 -100.11200 1333 ft 2 kts 30°
2026-04-22 03:22 25.78120 -100.11194 1333 ft 1 kts 83°
2026-04-22 03:22 25.78112 -100.11168 1333 ft 7 kts 119°
2026-04-22 03:22 25.77992 -100.10949 1333 ft 75 kts 122°
2026-04-22 03:23 25.77568 -100.10173 1337 ft 156 kts 121°
2026-04-22 03:23 25.76954 -100.09028 2000 ft 174 kts 121°
2026-04-22 03:23 25.76360 -100.07898 3270 ft 171 kts 121°
2026-04-22 03:23 25.75759 -100.06752 4289 ft 176 kts 122°
2026-04-22 03:24 25.75094 -100.05576 5268 ft 178 kts 131°
2026-04-22 03:24 25.74073 -100.04979 6416 ft 166 kts 176°
2026-04-22 03:24 25.72909 -100.05176 7202 ft 177 kts 199°
2026-04-22 03:24 25.71862 -100.05925 7897 ft 185 kts 230°
2026-04-22 03:25 25.71331 -100.07197 8767 ft 183 kts 260°
2026-04-22 03:25 25.71111 -100.08600 9602 ft 185 kts 261°
2026-04-22 03:25 25.70869 -100.10005 10382 ft 188 kts 261°
2026-04-22 03:25 25.70604 -100.11491 10850 ft 207 kts 261°
2026-04-22 03:26 25.70286 -100.13136 11289 ft 229 kts 259°
2026-04-22 03:26 25.69916 -100.14941 11768 ft 249 kts 259°
2026-04-22 03:26 25.69521 -100.16866 12387 ft 265 kts 259°
2026-04-22 03:26 25.69094 -100.18935 12878 ft 285 kts 259°
2026-04-22 03:27 25.68636 -100.21155 13288 ft 306 kts 259°
2026-04-22 03:27 25.68144 -100.23531 13663 ft 326 kts 258°
2026-04-22 03:27 25.67620 -100.26060 13955 ft 346 kts 258°
2026-04-22 03:27 25.67067 -100.28731 14139 ft 365 kts 258°
2026-04-22 03:28 25.66484 -100.31552 14268 ft 382 kts 258°
2026-04-22 03:28 25.65889 -100.34467 14543 ft 392 kts 258°
2026-04-22 03:28 25.65301 -100.37426 15131 ft 393 kts 258°
2026-04-22 03:28 25.64730 -100.40362 15619 ft 396 kts 258°
2026-04-22 03:29 25.64155 -100.43361 16125 ft 399 kts 258°
2026-04-22 03:29 25.63570 -100.46397 16644 ft 402 kts 258°
2026-04-22 03:29 25.62990 -100.49432 17135 ft 404 kts 258°
2026-04-22 03:29 25.62405 -100.52491 17626 ft 407 kts 258°
2026-04-22 03:30 25.61813 -100.55566 18140 ft 409 kts 258°
2026-04-22 03:30 25.61223 -100.58659 18567 ft 412 kts 258°
2026-04-22 03:30 25.60630 -100.61754 18887 ft 417 kts 258°
2026-04-22 03:30 25.60025 -100.64900 19356 ft 418 kts 258°
2026-04-22 03:31 25.59417 -100.68063 19781 ft 419 kts 258°
2026-04-22 03:31 25.58810 -100.71227 20200 ft 420 kts 258°
2026-04-22 03:31 25.58199 -100.74400 20599 ft 422 kts 258°
2026-04-22 03:31 25.57585 -100.77587 21025 ft 423 kts 258°
2026-04-22 03:32 25.56976 -100.80748 21412 ft 425 kts 258°
2026-04-22 03:32 25.56357 -100.83953 21809 ft 426 kts 259°
2026-04-22 03:32 25.55735 -100.87174 22185 ft 428 kts 259°
2026-04-22 03:32 25.55111 -100.90402 22544 ft 429 kts 259°
2026-04-22 03:33 25.54360 -100.93619 22874 ft 432 kts 251°
2026-04-22 03:33 25.53197 -100.96702 23217 ft 434 kts 249°
2026-04-22 03:33 25.52053 -100.99766 23514 ft 436 kts 249°
2026-04-22 03:33 25.50885 -101.02874 23839 ft 438 kts 249°
2026-04-22 03:34 25.49711 -101.05990 24074 ft 440 kts 249°
2026-04-22 03:34 25.48529 -101.09120 24317 ft 440 kts 249°
2026-04-22 03:34 25.47347 -101.12249 24578 ft 441 kts 249°
2026-04-22 03:34 25.46162 -101.15384 24812 ft 443 kts 249°
2026-04-22 03:35 25.44971 -101.18534 25082 ft 444 kts 249°
2026-04-22 03:35 25.43777 -101.21687 25341 ft 445 kts 249°
2026-04-22 03:35 25.42575 -101.24859 25588 ft 446 kts 249°
2026-04-22 03:35 25.41367 -101.28044 25821 ft 447 kts 249°
2026-04-22 03:36 25.40177 -101.31179 26040 ft 449 kts 249°
2026-04-22 03:36 25.38967 -101.34367 26277 ft 450 kts 249°
2026-04-22 03:36 25.37757 -101.37552 26565 ft 449 kts 249°
2026-04-22 03:36 25.36547 -101.40732 26893 ft 448 kts 249°
2026-04-22 03:37 25.35341 -101.43900 27234 ft 446 kts 249°
2026-04-22 03:37 25.34137 -101.47059 27588 ft 445 kts 249°
2026-04-22 03:37 25.32937 -101.50208 27948 ft 443 kts 250°
2026-04-22 03:37 25.31739 -101.53348 28321 ft 442 kts 250°
2026-04-22 03:38 25.30544 -101.56480 28703 ft 440 kts 250°
2026-04-22 03:38 25.29355 -101.59591 29098 ft 438 kts 250°
2026-04-22 03:38 25.28185 -101.62650 29488 ft 437 kts 250°
2026-04-22 03:38 25.27004 -101.65737 29914 ft 435 kts 250°
2026-04-22 03:39 25.25828 -101.68809 30306 ft 433 kts 250°
2026-04-22 03:39 25.24653 -101.71874 30676 ft 432 kts 250°
2026-04-22 03:39 25.23483 -101.74927 31052 ft 430 kts 250°
2026-04-22 03:39 25.22317 -101.77963 31421 ft 428 kts 250°
2026-04-22 03:40 25.21152 -101.80994 31794 ft 427 kts 250°
2026-04-22 03:40 25.19994 -101.84007 32047 ft 426 kts 250°
2026-04-22 03:40 25.17688 -101.89999 32038 ft 422 kts 250°
2026-04-22 03:41 25.15405 -101.95922 32034 ft 422 kts 250°
2026-04-22 03:41 25.13105 -102.01880 32030 ft 421 kts 250°
2026-04-22 03:42 25.10812 -102.07814 32012 ft 423 kts 250°
2026-04-22 03:42 25.08494 -102.13802 32014 ft 424 kts 250°
2026-04-22 03:43 25.06172 -102.19793 32016 ft 424 kts 250°
2026-04-22 03:43 25.03850 -102.25775 32004 ft 424 kts 250°
2026-04-22 03:44 25.01538 -102.31723 32007 ft 424 kts 250°
2026-04-22 03:44 24.99208 -102.37710 31999 ft 424 kts 250°
2026-04-22 03:45 24.96887 -102.43665 31997 ft 425 kts 250°
2026-04-22 03:45 24.94539 -102.49682 31998 ft 427 kts 250°
2026-04-22 03:46 24.92189 -102.55698 31995 ft 427 kts 250°
2026-04-22 03:46 24.89854 -102.61668 32000 ft 427 kts 250°
2026-04-22 03:47 24.87498 -102.67684 31997 ft 427 kts 250°
2026-04-22 03:47 24.85143 -102.73692 31995 ft 427 kts 250°
2026-04-22 03:48 24.82799 -102.79662 32007 ft 426 kts 250°
2026-04-22 03:48 24.80439 -102.85657 32005 ft 426 kts 250°
2026-04-22 03:49 24.78076 -102.91648 32004 ft 426 kts 250°
2026-04-22 03:49 24.75712 -102.97633 32000 ft 426 kts 250°
2026-04-22 03:50 24.73369 -103.03556 32010 ft 425 kts 250°
2026-04-22 03:50 24.71004 -103.09526 32019 ft 425 kts 250°
2026-04-22 03:51 24.68641 -103.15484 32002 ft 426 kts 250°
2026-04-22 03:51 24.66260 -103.21486 32033 ft 428 kts 249°
2026-04-22 03:52 24.63893 -103.27446 32036 ft 428 kts 250°
2026-04-22 03:52 24.61511 -103.33435 32031 ft 428 kts 250°
2026-04-22 03:53 24.59121 -103.39436 32046 ft 428 kts 249°
2026-04-22 03:53 24.56732 -103.45428 32049 ft 428 kts 249°
2026-04-22 03:54 24.54341 -103.51416 32066 ft 427 kts 249°
2026-04-22 03:54 24.51962 -103.57362 32075 ft 427 kts 249°
2026-04-22 03:55 24.49569 -103.63338 32073 ft 427 kts 249°
2026-04-22 03:55 24.47173 -103.69317 32087 ft 427 kts 249°
2026-04-22 03:56 24.44775 -103.75297 32077 ft 428 kts 249°
2026-04-22 03:56 24.42387 -103.81235 32095 ft 428 kts 249°
2026-04-22 03:57 24.39975 -103.87217 32090 ft 428 kts 249°
2026-04-22 03:57 24.37565 -103.93189 32100 ft 428 kts 249°
2026-04-22 03:58 24.35170 -103.99114 32080 ft 428 kts 249°
2026-04-22 03:58 24.32756 -104.05080 32095 ft 428 kts 249°
2026-04-22 03:59 24.30335 -104.11054 32096 ft 428 kts 249°
2026-04-22 03:59 24.27912 -104.17024 32091 ft 428 kts 249°
2026-04-22 04:00 24.25896 -104.21985 32097 ft 428 kts 249°
2026-04-22 04:00 24.23070 -104.28933 32099 ft 429 kts 249°
2026-04-22 04:01 24.21041 -104.33914 32097 ft 430 kts 249°
2026-04-22 04:01 24.18605 -104.39887 32094 ft 429 kts 249°
2026-04-22 04:02 24.16162 -104.45869 32096 ft 430 kts 249°
2026-04-22 04:02 24.13668 -104.51819 32102 ft 432 kts 244°
2026-04-22 04:03 24.10593 -104.57490 32114 ft 433 kts 243°
2026-04-22 04:03 24.07515 -104.63110 32108 ft 433 kts 243°
2026-04-22 04:04 24.04414 -104.68759 32144 ft 433 kts 243°
2026-04-22 04:04 24.01309 -104.74409 32144 ft 433 kts 243°
2026-04-22 04:05 23.98200 -104.80058 32147 ft 433 kts 243°
2026-04-22 04:05 23.95138 -104.85616 31544 ft 424 kts 243°
2026-04-22 04:06 23.93620 -104.88370 30913 ft 421 kts 243°
2026-04-22 04:06 23.92115 -104.91098 30304 ft 416 kts 243°
2026-04-22 04:06 23.90626 -104.93795 30167 ft 416 kts 243°
2026-04-22 04:06 23.89116 -104.96530 30180 ft 424 kts 243°
2026-04-22 04:07 23.86015 -105.02141 30177 ft 438 kts 243°
2026-04-22 04:07 23.82834 -105.07888 30044 ft 442 kts 243°
2026-04-22 04:08 23.81246 -105.10755 28882 ft 443 kts 242°
2026-04-22 04:08 23.79658 -105.13620 27617 ft 449 kts 242°
2026-04-22 04:08 23.78029 -105.16557 26408 ft 454 kts 242°
2026-04-22 04:08 23.76386 -105.19518 25248 ft 458 kts 241°
2026-04-22 04:09 23.74741 -105.22480 24466 ft 453 kts 241°
2026-04-22 04:09 23.73120 -105.25398 23820 ft 446 kts 240°
2026-04-22 04:09 23.71518 -105.28283 22983 ft 441 kts 240°
2026-04-22 04:09 23.69935 -105.31131 22201 ft 436 kts 241°
2026-04-22 04:10 23.68357 -105.33965 21372 ft 433 kts 240°
2026-04-22 04:10 23.66798 -105.36769 20581 ft 430 kts 240°
2026-04-22 04:10 23.65249 -105.39548 19847 ft 427 kts 240°
2026-04-22 04:10 23.63732 -105.42272 19145 ft 424 kts 240°
2026-04-22 04:11 23.62201 -105.45020 18436 ft 422 kts 240°
2026-04-22 04:11 23.60681 -105.47746 17647 ft 419 kts 240°
2026-04-22 04:11 23.59174 -105.50448 16944 ft 414 kts 240°
2026-04-22 04:11 23.57683 -105.53119 16320 ft 409 kts 240°
2026-04-22 04:12 23.56209 -105.55759 15677 ft 405 kts 240°
2026-04-22 04:12 23.54748 -105.58372 15132 ft 400 kts 240°
2026-04-22 04:12 23.53311 -105.60942 14640 ft 394 kts 240°
2026-04-22 04:12 23.51915 -105.63435 14207 ft 387 kts 240°
2026-04-22 04:13 23.50523 -105.65923 13708 ft 381 kts 240°
2026-04-22 04:13 23.49151 -105.68372 13249 ft 374 kts 239°
2026-04-22 04:13 23.47801 -105.70777 12888 ft 367 kts 240°
2026-04-22 04:13 23.46491 -105.73117 12595 ft 357 kts 240°
2026-04-22 04:14 23.45213 -105.75396 12300 ft 348 kts 240°
2026-04-22 04:14 23.43967 -105.77619 12021 ft 339 kts 239°
2026-04-22 04:14 23.42757 -105.79771 11781 ft 329 kts 240°
2026-04-22 04:14 23.41579 -105.81867 11592 ft 320 kts 239°
2026-04-22 04:15 23.40449 -105.83878 11453 ft 310 kts 240°
2026-04-22 04:15 23.39337 -105.85857 11312 ft 301 kts 240°
2026-04-22 04:15 23.38262 -105.87768 11163 ft 291 kts 240°
2026-04-22 04:15 23.37220 -105.89620 11026 ft 282 kts 240°
2026-04-22 04:16 23.36211 -105.91414 10852 ft 274 kts 240°
2026-04-22 04:16 23.34310 -105.94788 10548 ft 253 kts 240°
2026-04-22 04:16 23.33416 -105.96375 10373 ft 240 kts 240°
2026-04-22 04:17 23.32552 -105.97908 10059 ft 235 kts 240°
2026-04-22 04:17 23.31705 -105.99411 9678 ft 232 kts 240°
2026-04-22 04:17 23.30860 -106.00907 9241 ft 231 kts 239°
2026-04-22 04:17 23.30018 -106.02401 8802 ft 231 kts 239°
2026-04-22 04:18 23.29183 -106.03879 8295 ft 229 kts 238°
2026-04-22 04:18 23.28262 -106.05274 7824 ft 223 kts 228°
2026-04-22 04:18 23.27149 -106.06387 7342 ft 212 kts 216°
2026-04-22 04:18 23.25945 -106.07190 6821 ft 200 kts 205°
2026-04-22 04:19 23.24681 -106.07731 6315 ft 190 kts 195°
2026-04-22 04:19 23.23399 -106.08024 5740 ft 184 kts 186°
2026-04-22 04:19 23.22143 -106.08080 5145 ft 182 kts 177°
2026-04-22 04:19 23.20914 -106.07909 4655 ft 174 kts 168°
2026-04-22 04:20 23.19757 -106.07599 4251 ft 169 kts 166°
2026-04-22 04:20 23.18609 -106.07383 3922 ft 164 kts 174°
2026-04-22 04:20 23.17471 -106.07421 3716 ft 164 kts 183°
2026-04-22 04:20 23.16416 -106.07812 3420 ft 166 kts 217°
2026-04-22 04:21 23.15794 -106.08845 3183 ft 165 kts 249°
2026-04-22 04:21 23.15518 -106.10039 2931 ft 160 kts 261°
2026-04-22 04:21 23.15442 -106.11235 2691 ft 158 kts 269°
2026-04-22 04:21 23.15468 -106.12421 2454 ft 156 kts 272°
2026-04-22 04:22 23.15519 -106.13592 2210 ft 154 kts 273°
2026-04-22 04:22 23.15571 -106.14773 2032 ft 156 kts 273°
2026-04-22 04:22 23.15616 -106.15942 1826 ft 154 kts 274°
2026-04-22 04:22 23.15669 -106.17084 1616 ft 153 kts 274°
2026-04-22 04:23 23.15714 -106.18226 1452 ft 148 kts 273°
2026-04-22 04:23 23.15771 -106.19339 1239 ft 149 kts 275°
2026-04-22 04:23 23.15835 -106.20472 991 ft 151 kts 274°
2026-04-22 04:23 23.15887 -106.21610 789 ft 148 kts 274°
2026-04-22 04:24 23.15964 -106.22739 501 ft 152 kts 274°
2026-04-22 04:24 23.16018 -106.23855 324 ft 148 kts 272°
2026-04-22 04:24 23.16069 -106.24974 118 ft 147 kts 273°
2026-04-22 04:24 23.16122 -106.26038 40 ft 127 kts 273°
2026-04-22 04:25 23.16162 -106.26618 38 ft 21 kts 294°
2026-04-22 04:25 23.16253 -106.26792 38 ft 29 kts 305°
2026-04-22 04:25 23.16427 -106.26854 38 ft 15 kts
2026-04-22 04:25 23.16467 -106.26878 38 ft 5 kts 286°
2026-04-22 04:26 23.16474 -106.26906 38 ft 4 kts 287°
2026-04-22 04:26 23.16480 -106.26918 38 ft 0 kts 312°
2026-04-22 04:26 23.16486 -106.26918 38 ft 2 kts 353°
2026-04-22 04:26 23.16516 -106.26917 38 ft 6 kts
2026-04-22 04:27 23.16530 -106.26917 38 ft 1 kts
2026-04-22 04:27 23.16545 -106.26916 38 ft 0 kts
2026-04-22 04:27 23.16550 -106.26916 38 ft 0 kts
2026-04-22 04:27 23.16551 -106.26915 38 ft 0 kts